Damascus, Syria

9:22 AM EET on March 25, 2017 (GMT +0200)
Damascus

Weather History for OSDI - January, 2013

Change the Weather History Date:

Friday, January 11, 2013

  Actual Average Record
Temperature  
Mean Temperature 34 °F -  
Max Temperature 39 °F 56 °F 66 °F (2003)
Min Temperature 30 °F 34 °F 24 °F (2005)
Degree Days  
Heating Degree Days 30    
Moisture  
Dew Point 32 °F    
Average Humidity 90    
Maximum Humidity 100    
Minimum Humidity 70    
Precipitation  
Precipitation 0.00 in 0.04 in - ()
Sea Level Pressure  
Sea Level Pressure 30.31 in    
Wind  
Wind Speed 1 mph ()    
Max Wind Speed 5 mph    
Max Gust Speed -    
Visibility 1.6 miles    
Events Fog    
Averages and records for this station are not official NWS values.
T = Trace of Precipitation, MM = Missing Value Source: Averaged Metar Reports

Daily Weather History Graph

Daily Weather History Graph

Search for Another Location

Airport or City:

Trip Planner

Search our weather history database for the weather conditions in past years. The results will help you decide how hot, cold, wet, or windy it might be!

Date:

Astronomy

Jan. 11, 2013 Rise Set
Actual Time 6:38 AM EET 4:45 PM EET
Civil Twilight 6:11 AM EET 5:12 PM EET
Nautical Twilight 5:40 AM EET 5:43 PM EET
Astronomical Twilight 5:10 AM EET 6:13 PM EET
Moon 5:55 AM EET (1/11) 4:36 PM EET (1/11)
Length of Visible Light 11h 01m
Length of Day
10h 06m
Waning Crescent, 0% of the Moon is Illuminated
Jan 11
Waning Crescent
Jan 11
New
Jan 19
First Quarter
Jan 27
Full
Feb 3
Last Quarter

Hourly Weather History & Observations

Time (EET) Temp. Windchill Dew Point Humidity Pressure Visibility Wind Dir Wind Speed Gust Speed Precip Events Conditions
12:00 AM 32.0 °F - 30.2 °F 93% 30.21 in 0.3 mi WSW 2.3 mph - N/A Fog Fog
1:00 AM 32.0 °F - 32.0 °F 100% 30.21 in 0.5 mi WSW 2.3 mph - N/A Fog Fog
2:00 AM 33 °F - 33 °F 97% 30.28 in 1 mi Calm Calm - -   Mist
2:00 AM 33.8 °F - 32.0 °F 93% 30.24 in 1.2 mi Calm Calm - N/A   Mist
3:00 AM 42.8 °F - 33.8 °F 70% 30.21 in 6.2 mi Calm Calm - N/A   Scattered Clouds
4:00 AM 32.0 °F - 30.2 °F 93% 30.24 in 1.2 mi Calm Calm - N/A   Mist
5:00 AM 30.2 °F - 30.2 °F 100% 30.27 in 1.2 mi Calm Calm - N/A   Mist
6:00 AM 32.0 °F - 28.4 °F 87% 30.27 in 1.2 mi Calm Calm - N/A   Mist
7:00 AM 30.2 °F - 30.2 °F 100% 30.30 in 1.2 mi Calm Calm - N/A   Mostly Cloudy
8:00 AM 32 °F - 30 °F 90% 30.37 in 1 mi Calm Calm - -   Overcast
8:00 AM 30.2 °F - 30.2 °F 100% 30.33 in 1.2 mi Calm Calm - N/A   Mostly Cloudy
9:00 AM 32.0 °F - 30.2 °F 93% 30.33 in 1.2 mi Calm Calm - N/A   Mostly Cloudy
10:00 AM 33.8 °F - 30.2 °F 87% 30.36 in 1.2 mi Calm Calm - N/A   Mostly Cloudy
11:00 AM 33.8 °F - 32.0 °F 93% 30.36 in 1.2 mi Calm Calm - N/A   Mostly Cloudy
12:00 PM 37.4 °F - 30.2 °F 75% 30.33 in 1.9 mi Calm Calm - N/A   Mostly Cloudy
1:00 PM 37.4 °F - 33.8 °F 87% 30.33 in 1.9 mi NNE 2.3 mph - N/A   Mostly Cloudy
2:00 PM 39 °F - 34 °F 77% 30.36 in 2 mi Calm Calm - -   Mist
2:00 PM 39.2 °F - 33.8 °F 81% 30.33 in 1.9 mi Calm Calm - N/A   Mostly Cloudy
3:00 PM 39.2 °F 35.9 °F 33.8 °F 81% 30.33 in 1.9 mi North 4.6 mph - N/A   Mostly Cloudy
4:00 PM 39.2 °F 35.9 °F 33.8 °F 81% 30.30 in 1.9 mi NNE 4.6 mph - N/A   Mostly Cloudy
5:00 PM 39.2 °F - 35.6 °F 87% 30.33 in 1.9 mi Calm Calm - N/A   Mostly Cloudy
6:00 PM 37.4 °F - 35.6 °F 93% 30.33 in 1.9 mi Calm Calm - N/A   Mostly Cloudy
7:00 PM 37.4 °F - 35.6 °F 93% 30.33 in 1.9 mi Calm Calm - N/A   Mostly Cloudy
8:00 PM 37 °F - 35 °F 89% 30.39 in 2 mi Calm Calm - -   Mist
8:00 PM 37.4 °F - 35.6 °F 93% 30.33 in 1.9 mi Calm Calm - N/A   Mostly Cloudy
9:00 PM 35.6 °F - 33.8 °F 93% 30.36 in 1.9 mi Calm Calm - N/A   Mostly Cloudy
10:00 PM 33.8 °F - 30.2 °F 87% 30.36 in - Calm Calm - N/A   Mostly Cloudy
11:00 PM 32.0 °F - 32.0 °F 100% 30.39 in 0.9 mi Calm Calm - N/A   Mostly Cloudy